CZ-6A DEB

Satellite information

Favourite Embed

Satellite Type and Status

DEBRISIN ORBIT

Key statistics

Satellite CZ-6A DEB at a glance.

Uptime

911

Days in orbit

Revolutions

≈ 14.1

Per day

Orbit

SSO

Sun Synchronous Orbit

Inclination

98.8

Latest

Satellite identification and parameters

Extended collection of information and parameters for CZ-6A DEB.

Object identification

Identified? True

Debris? True

Object name: CZ-6A DEB

International designator: 2022-151TE

Object number (NORAD): 54965

Object ID (CCSDS): 54965

Country: PEOPLES REPUBLIC OF CHINA (PRC)

Current information (Y/N): Y

RCS size: SMALL

Orbital parameters

Period: 102.457 minutes

Inclination: 98.7917 deg

SMA: 7253.04 km

Apoapsis: 939.249 km

Periapsis: 810.561 km

RAAN: 118.4636 deg

Eccentricy: 0.0088713

Argument of periapsis: 84.6157 deg

Mean anomaly: 276.5124 deg

Mean motion: 14.05473369 rev/day

Mean motion (dot): 0.00000607 rev/day2

B* drag term: 0.00038574 1/REarth

Two-line elements (TLE)

Creation date: May 10, 2025, 2:32 a.m.

Reference frame: TEME

Reference center: EARTH

Epoch: May 9, 2025, 11:29 a.m. UTC

TLE line 0: 0 CZ-6A DEB

TLE line 1: 1 54965U 22151TE 25129.47906380 .00000607 00000-0 38574-3 0 9999

TLE line 2: 2 54965 98.7917 118.4636 0088713 84.6157 276.5124 14.05473369127446

Live tracking on map

Real-time ground track for satellite CZ-6A DEB.

In-orbit conjunctions

A list of the most updated potential collisions computed for object CZ-6A DEB.

Target Orbit TCA Probability of collision Miss distance Type
SL-12 R/B(AUX MOTOR) HEO 2025-01-07 15:18:31 0.003570091 25.0 (m) ROCKET BODY
COSMOS 1275 DEB LEO 2024-12-23 19:56:53 0.0003319385 50.0 (m) DEBRIS
SL-16 DEB LEO 2024-06-26 13:39:37 0.000233373 107.0 (m) DEBRIS

Associated space launch

Chinese satellite reported for atmospheric/ocean/environmental/spatial parameter research purposes, details TBD.

CZ-6A DEB was lifted into orbit during the mission ‘Long March 6A | Yunhai 3’, on board a Long March 6A space rocket.

The launch took place on Nov. 11, 2022, 10:52 p.m. from Launch Complex 9A.

For more information about the launch, click the button.

Launch to space Long March 6A | Yunhai 3
Long March 6A | Yunhai 3

Agency: N/A

Status: Launch Successful

Launch date: Nov. 11, 2022, 10:52 p.m. UTC

Rocket: Long March 6A

Launch pad: Launch Complex 9A

Location: Taiyuan Satellite Launch Center, People's Republic of China

...

Latest news about this satellite

There are no fresh news available about this satellite. Check back as we update our databases every day.


Newsletter sign-up

Weekly statistics, charts and insights to help you stay on top of the space industry.